This is the latest recevied weather packets stored in our database for station/object OE2ATN. If no packets are shown the sender has not sent any weather packets the latest 10 day(s).
| Time | Temp. | Humidity | Pressure | Rain* | Wind** | Luminosity | Snow |
|---|---|---|---|---|---|---|---|
| 1777502910 | 3.33° C | 74% | 1031 hPa | 0 mm | - | - | - |
| 1777502610 | 3.89° C | 73% | 1031 hPa | 0 mm | - | - | - |
| 1777502310 | 3.89° C | 73% | 1031 hPa | 0 mm | - | - | - |
| 1777502009 | 3.89° C | 74% | 1030.9 hPa | 0 mm | - | - | - |
| 1777501709 | 3.89° C | 73% | 1030.8 hPa | 0 mm | - | - | - |
| 1777501409 | 4.44° C | 71% | 1030.9 hPa | 0 mm | - | - | - |
| 1777501108 | 4.44° C | 71% | 1030.7 hPa | 0 mm | - | - | - |
| 1777500809 | 4.44° C | 71% | 1030.7 hPa | 0 mm | - | - | - |
| 1777500509 | 4.44° C | 71% | 1030.6 hPa | 0 mm | - | - | - |
| 1777500209 | 4.44° C | 71% | 1030.6 hPa | 0 mm | - | - | - |
| 1777499908 | 4.44° C | 72% | 1030.4 hPa | 0 mm | - | - | - |
| 1777499607 | 5° C | 70% | 1030.3 hPa | 0 mm | - | - | - |
| 1777499307 | 5° C | 68% | 1030.3 hPa | 0 mm | - | - | - |
| 1777499007 | 5.56° C | 68% | 1030.3 hPa | 0 mm | - | - | - |
| 1777498708 | 5.56° C | 68% | 1030.3 hPa | 0 mm | - | - | - |
| 1777498408 | 5.56° C | 69% | 1030.3 hPa | 0 mm | - | - | - |
| 1777498108 | 5.56° C | 68% | 1030.4 hPa | 0 mm | - | - | - |
| 1777497808 | 6.11° C | 66% | 1030.3 hPa | 0 mm | - | - | - |
| 1777497507 | 6.11° C | 66% | 1030.3 hPa | 0 mm | - | - | - |
| 1777497208 | 6.11° C | 65% | 1030.2 hPa | 0 mm | - | - | - |
| 1777496907 | 6.67° C | 64% | 1030.2 hPa | 0 mm | - | - | - |
| 1777496607 | 6.67° C | 65% | 1030 hPa | 0 mm | - | - | - |
| 1777496308 | 6.11° C | 66% | 1030 hPa | 0 mm | - | - | - |
| 1777496008 | 6.67° C | 65% | 1030.1 hPa | 0 mm | - | - | - |
| 1777495707 | 6.11° C | 66% | 1030 hPa | 0 mm | - | - | - |
* Rain latest hour (hover to see other rain measurements)
** Current wind speed in m/s (hover to see current wind gust speed)